Location: Plainartige
(45.6866°N, 1.7993°E)
Time: 03:50:55
(UTC+00:00)

DIWATA 2B (PO-101) - Pass Details

Date: 08 July 2022
Orbit: 583 x 599 km, 98.0° (Epoch: 13 August)

Event Time Altitude Azimuth Distance (km) Brightness Sun altitude
Exits shadow 02:38:51 19° 231° (SW) 1,454 ? -12.7°
Maximum altitude 02:40:34 24° 266° (W) 1,254 ? -12.5°
Drops below altitude 10° 02:44:01 10° 321° (NW) 1,947 ? -12.1°
Sets 02:46:33 0° 335° (NNW) 2,854 ? -11.8°
